Meteo pe oră la Bolshie Shidy

Astăzi, 12 Mai, Miercuri

Timp Temperatura Precipitaţii Vânt Presiune Umiditate
00:00 +15°C° 0 mm 1 m/s 760 mmHg 51%
01:00 +14°C° 0 mm 1 m/s 760 mmHg 51%
02:00 +14°C° 0 mm 1 m/s 760 mmHg 52%
03:00 +14°C° 0 mm 1 m/s 760 mmHg 52%
04:00 +13°C° 0 mm 1 m/s 760 mmHg 51%
05:00 +15°C° 0 mm 1 m/s 760 mmHg 49%
06:00 +16°C° 0 mm 1 m/s 761 mmHg 47%
07:00 +19°C° 0 mm 1 m/s 761 mmHg 45%
08:00 +21°C° 0 mm 1 m/s 761 mmHg 41%
09:00 +23°C° 0 mm 1 m/s 761 mmHg 38%
10:00 +25°C° 0 mm 1 m/s 761 mmHg 34%
11:00 +26°C° 0 mm 1 m/s 761 mmHg 31%
12:00 +27°C° 0 mm 1 m/s 761 mmHg 29%
13:00 +28°C° 0 mm 1 m/s 760 mmHg 27%
14:00 +28°C° 0 mm 1 m/s 760 mmHg 28%
15:00 +28°C° 0 mm 2 m/s 760 mmHg 28%
16:00 +28°C° 0 mm 2 m/s 760 mmHg 29%
17:00 +26°C° 0 mm 2 m/s 760 mmHg 36%
18:00 +24°C° 0 mm 2 m/s 760 mmHg 43%
19:00 +23°C° 0 mm 1 m/s 760 mmHg 50%
20:00 +21°C° 0 mm 1 m/s 760 mmHg 51%
21:00 +20°C° 0 mm 1 m/s 760 mmHg 52%
22:00 +19°C° 0 mm 1 m/s 760 mmHg 53%
23:00 +18°C° 0 mm 1 m/s 760 mmHg 56%

Mâine, 13 Mai, Joi

Timp Temperatura Precipitaţii Vânt Presiune Umiditate
00:00 +15°C° 0 mm 0 m/s 760 mmHg 59%
01:00 +15°C° 0 mm 0 m/s 760 mmHg 62%
02:00 +14°C° 0 mm 0 m/s 760 mmHg 64%
03:00 +14°C° 0 mm 0 m/s 760 mmHg 66%
04:00 +13°C° 0 mm 0 m/s 761 mmHg 68%
05:00 +15°C° 0 mm 0 m/s 761 mmHg 64%
06:00 +16°C° 0 mm 0 m/s 761 mmHg 61%
07:00 +18°C° 0 mm 0 m/s 761 mmHg 58%
08:00 +20°C° 0 mm 0 m/s 761 mmHg 53%
09:00 +22°C° 0 mm 0 m/s 761 mmHg 48%
10:00 +24°C° 0 mm 0 m/s 761 mmHg 43%
11:00 +25°C° 0 mm 0 m/s 760 mmHg 39%
12:00 +26°C° 0 mm 0 m/s 760 mmHg 35%
13:00 +29°C° 0 mm 1 m/s 760 mmHg 31%
14:00 +29°C° 0 mm 1 m/s 760 mmHg 30%
15:00 +29°C° 0 mm 1 m/s 760 mmHg 30%
16:00 +29°C° 0 mm 1 m/s 759 mmHg 30%
17:00 +28°C° 0 mm 1 m/s 759 mmHg 36%
18:00 +26°C° 0 mm 1 m/s 759 mmHg 42%
19:00 +25°C° 0 mm 1 m/s 759 mmHg 48%
20:00 +23°C° 0 mm 1 m/s 759 mmHg 50%
21:00 +22°C° 0 mm 1 m/s 759 mmHg 53%
22:00 +20°C° 0 mm 1 m/s 759 mmHg 55%
23:00 +19°C° 0 mm 1 m/s 759 mmHg 58%

Poimâine, 14 Mai, Vineri

Timp Temperatura Precipitaţii Vânt Presiune Umiditate
00:00 +19°C° 0 mm 1 m/s 760 mmHg 61%
01:00 +18°C° 0 mm 1 m/s 760 mmHg 64%
02:00 +16°C° 0 mm 1 m/s 760 mmHg 66%
03:00 +16°C° 0 mm 1 m/s 760 mmHg 68%
04:00 +15°C° 0 mm 1 m/s 760 mmHg 70%
05:00 +18°C° 0 mm 1 m/s 760 mmHg 66%
06:00 +19°C° 0 mm 1 m/s 760 mmHg 63%
07:00 +21°C° 0 mm 1 m/s 760 mmHg 59%
08:00 +23°C° 0 mm 1 m/s 760 mmHg 52%
09:00 +24°C° 0 mm 2 m/s 760 mmHg 45%
10:00 +26°C° 0 mm 2 m/s 760 mmHg 38%
11:00 +27°C° 0 mm 3 m/s 760 mmHg 35%
12:00 +28°C° 0 mm 3 m/s 760 mmHg 32%
13:00 +29°C° 0 mm 3 m/s 759 mmHg 29%
14:00 +29°C° 0 mm 3 m/s 759 mmHg 29%
15:00 +29°C° 0 mm 3 m/s 759 mmHg 30%
16:00 +29°C° 0 mm 3 m/s 759 mmHg 31%
17:00 +27°C° 0 mm 2 m/s 759 mmHg 38%
18:00 +26°C° 0 mm 2 m/s 758 mmHg 46%
19:00 +24°C° 0 mm 1 m/s 758 mmHg 54%
20:00 +23°C° 0 mm 1 m/s 758 mmHg 57%
21:00 +21°C° 0 mm 1 m/s 758 mmHg 60%
22:00 +20°C° 0 mm 1 m/s 758 mmHg 63%
23:00 +19°C° 0 mm 1 m/s 758 mmHg 65%

15 Mai, Sâmbătă

Timp Temperatura Precipitaţii Vânt Presiune Umiditate
00:00 +19°C° 0 mm 1 m/s 758 mmHg 67%
01:00 +18°C° 0 mm 1 m/s 758 mmHg 69%
02:00 +16°C° 0 mm 1 m/s 758 mmHg 70%
03:00 +16°C° 0 mm 1 m/s 758 mmHg 71%
04:00 +15°C° 0 mm 1 m/s 758 mmHg 73%
05:00 +18°C° 0 mm 1 m/s 758 mmHg 68%
06:00 +18°C° 0 mm 2 m/s 758 mmHg 64%
07:00 +20°C° 0 mm 2 m/s 758 mmHg 59%
08:00 +23°C° 0 mm 2 m/s 758 mmHg 53%
09:00 +25°C° 0 mm 3 m/s 758 mmHg 47%
10:00 +27°C° 0 mm 3 m/s 758 mmHg 41%
11:00 +28°C° 0 mm 4 m/s 758 mmHg 38%
12:00 +29°C° 0 mm 4 m/s 757 mmHg 34%
13:00 +30°C° 0 mm 4 m/s 757 mmHg 30%
14:00 +30°C° 0 mm 4 m/s 757 mmHg 30%
15:00 +30°C° 0 mm 4 m/s 757 mmHg 30%
16:00 +30°C° 0 mm 4 m/s 757 mmHg 30%
17:00 +29°C° 0 mm 3 m/s 756 mmHg 37%
18:00 +27°C° 0 mm 2 m/s 756 mmHg 44%
19:00 +25°C° 0 mm 2 m/s 756 mmHg 51%
20:00 +24°C° 0 mm 2 m/s 756 mmHg 54%
21:00 +22°C° 0 mm 1 m/s 756 mmHg 56%
22:00 +20°C° 0 mm 1 m/s 756 mmHg 58%
23:00 +20°C° 0 mm 1 m/s 756 mmHg 60%

16 Mai, Duminică

Timp Temperatura Precipitaţii Vânt Presiune Umiditate
00:00 +19°C° 0 mm 1 m/s 756 mmHg 62%
01:00 +18°C° 0 mm 1 m/s 756 mmHg 65%
02:00 +18°C° 0 mm 1 m/s 756 mmHg 66%
03:00 +16°C° 0 mm 1 m/s 756 mmHg 68%
04:00 +16°C° 0 mm 1 m/s 756 mmHg 70%
05:00 +18°C° 0 mm 1 m/s 757 mmHg 65%
06:00 +20°C° 0 mm 1 m/s 757 mmHg 61%
07:00 +21°C° 0 mm 1 m/s 757 mmHg 57%
08:00 +24°C° 0 mm 2 m/s 757 mmHg 51%
09:00 +26°C° 0 mm 2 m/s 757 mmHg 45%
10:00 +28°C° 0 mm 2 m/s 756 mmHg 40%
11:00 +29°C° 0 mm 2 m/s 756 mmHg 37%
12:00 +30°C° 0 mm 2 m/s 756 mmHg 34%
13:00 +31°C° 0 mm 3 m/s 756 mmHg 31%
14:00 +31°C° 0 mm 3 m/s 756 mmHg 30%
15:00 +31°C° 0 mm 3 m/s 755 mmHg 30%
16:00 +31°C° 0 mm 3 m/s 755 mmHg 29%
17:00 +30°C° 0 mm 2 m/s 755 mmHg 36%
18:00 +28°C° 0 mm 2 m/s 755 mmHg 43%
19:00 +27°C° 0 mm 1 m/s 754 mmHg 49%
20:00 +25°C° 0 mm 1 m/s 754 mmHg 50%
21:00 +24°C° 0 mm 1 m/s 755 mmHg 52%
22:00 +23°C° 0 mm 1 m/s 755 mmHg 53%
23:00 +21°C° 0 mm 2 m/s 755 mmHg 56%

17 Mai, Luni

Timp Temperatura Precipitaţii Vânt Presiune Umiditate
00:00 +20°C° 0 mm 2 m/s 754 mmHg 59%
01:00 +19°C° 0 mm 2 m/s 754 mmHg 62%
02:00 +19°C° 0 mm 2 m/s 754 mmHg 63%
03:00 +18°C° 0 mm 2 m/s 755 mmHg 65%
04:00 +17°C° 0 mm 2 m/s 755 mmHg 67%
05:00 +19°C° 0.1 mm 2 m/s 755 mmHg 65%
06:00 +20°C° 0.1 mm 2 m/s 755 mmHg 63%
07:00 +21°C° 0.1 mm 2 m/s 755 mmHg 60%
08:00 +24°C° 0 mm 2 m/s 755 mmHg 55%
09:00 +26°C° 0 mm 3 m/s 755 mmHg 50%
10:00 +28°C° 0 mm 3 m/s 755 mmHg 45%
11:00 +29°C° 0 mm 3 m/s 754 mmHg 40%
12:00 +30°C° 0 mm 4 m/s 754 mmHg 36%
13:00 +33°C° 0 mm 4 m/s 754 mmHg 32%
14:00 +32°C° 0 mm 4 m/s 753 mmHg 33%
15:00 +32°C° 0 mm 4 m/s 753 mmHg 35%
16:00 +30°C° 0 mm 4 m/s 753 mmHg 37%
17:00 +28°C° 0.2 mm 3 m/s 752 mmHg 46%
18:00 +25°C° 0.2 mm 2 m/s 752 mmHg 56%
19:00 +22°C° 0.2 mm 1 m/s 752 mmHg 65%
20:00 +21°C° 0.1 mm 1 m/s 752 mmHg 70%
21:00 +20°C° 0.1 mm 1 m/s 752 mmHg 75%
22:00 +19°C° 0.1 mm 1 m/s 753 mmHg 80%
23:00 +18°C° 0.1 mm 1 m/s 752 mmHg 81%
Arată mai mult

Formular de consimțământ

Meteoprog și furnizorii noștri de servicii pot stoca și accesa date personale, precum cookies, identificatori de dispozitiv sau alte tehnologii similare pe dispozitivul dumneavoastră și procesa astfel de date pentru a personaliza conținutul și reclamele, dar și pentru a oferi caracteristici de social media și pentru a analiza traficul.

  • Stocarea și/sau accesarea informațiilor pe dispozitivul dumneavoastră

    Cookies, identificatori de dispozitiv sau alte informații pot fi stocate sau accesate pe dispozitiv în scopurile indicate mai sus.

  • Reclame și conținut personalizat, evaluarea reclamelor și a conținutului, informații despre audiențe și dezvoltarea produselor

    Reclamele și conținutul pot fi personalizate pe baza unui profil. Pot fi adăugate date suplimentare pentru a personaliza mai bine reclamele și conținutul. Performanța reclamelor și conținutului poate fi măsurată. Pot fi obținute informații despre utilizatorii care au văzut reclamele și conținutul. Aceste date pot fi utilizate pentru a dezvolta sau îmbunătăți experiența utilizatorilor, sistemele și software-ul.

Dând clic pe ‘Sunt de acord’, permiteți utilizarea cookie-urilor menționate, a identificatorilor de dispozitiv, balizelor web sau altor tehnologii similare. Setările pot fi modificate din browser-ul dispozitivului dumneavoastră.

În anumite scopuri, interesele legitime pot prima asupra consimțământului. Puteți citi mai multe informații în acest sens în Politica privind Confidențialitatea Datelor și Cookie.